User: anonymous   Login
Location: Caltech
(34.1382°N, 118.1253°W)
Time: 00:14:22
(UTC-07:00)
Language:

Tiros 1 despin weight - Orbit

View from above orbital plane
View from above orbital plane
View from above satellite
View from above satellite

Ground track
Ground track

The orbit data is extracted from the following two-line orbital elements,

1 00115U 60002D   15108.10045906  .00002481  00000-0  33387-3 0  9997
2 00115 048.1667 342.5257 0035623 217.6238 142.2181 14.81928340932831
Epoch (UTC): 18 April 2015 02:24:39
Eccentricity: 0.0035623
inclination: 48.1667°
perigee height: 598 km
apogee height: 648 km
right ascension of ascending node: 342.5257°
argument of perigee: 217.6238°
revolutions per day: 14.81928340
mean anomaly at epoch: 142.2181°
orbit number at epoch: 93283

The dashed part of the orbit path shows where the satellite is in the earth's shadow,  

DLR